Cloud_Cover
5 5 8 70 6 28 100 100 91 86 43 96 29 64 6 5 0 0 0 0 0 0 0 21 100 96 5 4 13 11 17 98
5 5 3 57 90 42 84 51 48 89 27 58 46 55 5 5 0 5 0 0 0 0 0 33 100 33 5 3 6 4 28 29
1 3 5 4 7 84 100 100 38 53 69 96 100 48 58 4 3 3 2 0 0 0 0 3 75 90 0 3 6 4 6 17
2 0 4 5 5 5 7 6 9 9 75 99 99 61 46 88 8 0 0 0 0 0 0 6 81 1 0 2 0 0 14 24
4 5 5 4 4 95 99 95 99 4 100 100 96 90 5 31 0 0 0 0 0 0 0 0 96 49 3 3 5 0 15 26
0 16 67 5 0 3 66 100 100 66 60 99 57 26 16 54 2 0 0 34 10 0 0 5 96 6 39 5 5 23 6 22
0 88 19 5 4 0 0 5 73 100 96 0 100 43 90 4 71 0 0 21 67 60 4 5 5 5 5 5 5 53 37 37
0 0 0 0 0 0 0 0 5 0 24 90 100 100 49 3 100 15 0 0 65 93 70 5 5 5 91 38 3 19 5 100
5 5 5 5 0 3 0 0 0 3 3 5 7 22 70 100 97 62 0 0 0 98 99 57 6 5 5 94 2 2 1 19
58 88 70 50 82 2 0 2 16 5 5 5 82 100 99 47 6 4 0 0 0 3 100 96 92 5 43 7 8 0 0 17
99 100 99 26 0 4 5 53 0 0 0 5 9 9 1 3 0 0 0 0 0 0 5 73 87 5 61 59 24 19 0 0
100 100 100 100 99 8 4 0 0 0 0 0 0 0 45 82 6 0 0 0 0 0 0 0 3 5 5 97 52 18 0 1
5 52 99 2 38 53 17 20 2 1 1 0 0 0 0 0 0 0 0 0 0 0 0 0 0 2 62 60 86 7 13 17
5 62 99 4 1 0 0 0 0 0 0 0 0 0 0 0 0 0 0 0 0 0 0 0 0 2 36 67 57 0 0 32
12 14 0 0 0 0 0 0 0 0 0 0 0 0 0 0 0 0 0 0 0 0 0 0 2 20 6 74 9 1 2 13
0 0 0 0 0 0 0 0 0 0 0 0 0 0 0 0 0 0 0 0 0 22 26 8 18 7 6 47 52 10 2 87
0 0 0 0 0 0 0 0 0 0 0 0 0 0 0 0 0 0 0 0 0 0 69 32 21 17 18 19 51 97 46 100
0 0 0 0 0 0 0 0 0 0 0 0 0 0 0 0 0 0 0 0 0 9 13 67 77 26 13 15 42 84 43 66
0 0 0 0 0 0 0 0 0 0 0 0 0 0 0 0 0 0 0 0 2 5 12 89 26 98 46 9 73 10 53 13